N5OSI Weather Reports


Display with metric or nautical units.
time (UTC)temp
F
wind
direction
speed
MPH
gust
MPH
rain 1hr
in
rain 24hr
in
rain mn
in
humidity
%
barometer
mb
20260505125003 64 94 1.0 2.0 0.02 0.07 0.07 92 997.6
20260505124503 64 94 1.0 3.0 0.01 0.06 0.06 91 997.5
20260505124003 64 94 1.0 3.0 0.01 0.06 0.06 91 997.4
20260505123503 64 94 1.0 3.0 0.01 0.06 0.06 91 997.4
20260505123004 64 95 2.0 3.0 0.01 0.06 0.06 91 997.2
20260505122503 64 95 2.0 3.0 0.01 0.06 0.06 90 997.2
20260505122003 65 95 2.0 3.0 0.01 0.06 0.06 90 997.2
20260505121003 65 94 1.0 2.0 0.00 0.05 0.05 90 997.1
20260505120503 65 94 1.0 2.0 0.00 0.05 0.05 90 996.9
20260505120004 65 94 1.0 2.0 0.00 0.05 0.05 90 996.9
20260505115503 65 94 1.0 2.0 0.00 0.05 0.05 90 996.8
20260505115003 65 95 0.0 2.0 0.00 0.05 0.05 90 996.7
20260505114503 65 95 1.0 3.0 0.00 0.05 0.05 90 996.6
20260505114003 65 95 0.0 3.0 0.00 0.05 0.05 90 996.6
20260505113503 65 0 0.0 0.0 0.00 0.05 0.05 90 996.5
20260505113003 65 0 0.0 0.0 0.00 0.05 0.05 90 996.5
20260505112504 65 0 0.0 0.0 0.00 0.05 0.05 90 996.4
20260505112003 65 0 0.0 0.0 0.00 0.05 0.05 90 996.5
20260505111503 65 0 0.0 0.0 0.00 0.05 0.05 90 996.4
20260505110504 65 0 0.0 0.0 0.00 0.05 0.05 90 996.3
20260505102003 65 95 0.0 1.0 0.03 0.05 0.05 89 996.9
20260505101504 65 0 0.0 0.0 0.03 0.05 0.05 89 996.3
20260505100004 65 0 0.0 0.0 0.05 0.05 0.05 88 995.0
20260505095503 66 102 0.0 1.0 0.05 0.05 0.05 87 995.2
20260505095004 66 102 0.0 1.0 0.05 0.05 0.05 87 995.3
20260505094003 66 102 0.0 2.0 0.05 0.05 0.05 86 995.2
20260505093503 67 102 0.0 2.0 0.05 0.05 0.05 85 995.2
20260505093003 67 105 1.0 3.0 0.04 0.04 0.04 84 995.1
20260505092504 67 104 2.0 4.0 0.03 0.03 0.03 82 994.5
20260505091503 68 96 2.0 3.0 0.02 0.02 0.02 81 994.9
20260505091003 67 93 0.0 3.0 0.00 0.00 0.00 80 995.4
20260505090503 67 90 0.0 2.0 0.00 0.00 0.00 78 995.7
20260505090004 67 90 0.0 2.0 0.00 0.00 0.00 77 995.6
20260505085003 66 90 0.0 3.0 0.00 0.00 0.00 79 995.4
20260505084503 66 0 0.0 0.0 0.00 0.00 0.00 79 995.7
20260505084003 66 0 0.0 0.0 0.00 0.00 0.00 78 996.1
20260505083004 66 0 0.0 0.0 0.00 0.00 0.00 78 996.3
20260505082503 65 0 0.0 0.0 0.00 0.00 0.00 78 996.3
20260505082004 65 0 0.0 0.0 0.00 0.00 0.00 78 996.2
20260505081503 65 0 0.0 0.0 0.00 0.00 0.00 78 996.1
20260505080503 65 0 0.0 0.0 0.00 0.00 0.00 79 996.2
20260505080003 65 0 0.0 0.0 0.00 0.00 0.00 78 996.2
20260505075503 65 0 0.0 0.0 0.00 0.00 0.00 78 996.5
20260505075003 65 0 0.0 0.0 0.00 0.00 0.00 79 996.5
20260505074503 65 0 0.0 0.0 0.00 0.00 0.00 79 996.5
20260505074004 65 0 0.0 0.0 0.00 0.00 0.00 78 996.1
20260505073503 65 0 0.0 0.0 0.00 0.00 0.00 79 996.3
20260505073004 65 0 0.0 0.0 0.00 0.00 0.00 79 996.4
20260505072503 65 0 0.0 0.0 0.00 0.00 0.00 79 996.5
20260505071003 65 0 0.0 0.0 0.00 0.00 0.00 78 996.5
20260505070004 65 0 0.0 0.0 0.00 0.00 0.00 78 997.0
20260505065503 65 0 0.0 0.0 0.00 0.00 0.00 78 997.3
20260505065003 65 0 0.0 0.0 0.00 0.00 0.00 77 997.4
20260505064504 65 0 0.0 0.0 0.00 0.00 0.00 77 997.4
20260505063503 65 0 0.0 0.0 0.00 0.00 0.00 77 997.7
20260505063003 65 0 0.0 0.0 0.00 0.00 0.00 77 997.8
20260505062503 65 0 0.0 0.0 0.00 0.00 0.00 77 997.8
20260505061503 65 0 0.0 0.0 0.00 0.00 0.00 77 997.7
20260505060503 65 0 0.0 0.0 0.00 0.00 0.00 77 997.6
20260505060003 65 0 0.0 0.0 0.00 0.00 0.00 77 997.7
20260505055504 65 0 0.0 0.0 0.00 0.00 0.00 77 997.7
20260505055003 65 0 0.0 0.0 0.00 0.00 0.00 77 997.9
20260505054504 65 0 0.0 0.0 0.00 0.00 0.00 76 997.9
20260505054004 65 0 0.0 0.0 0.00 0.00 0.00 77 997.9
20260505053503 65 0 0.0 0.0 0.00 0.00 0.00 76 997.9
20260505053004 65 0 0.0 0.0 0.00 0.00 0.00 76 997.9
20260505052503 65 0 0.0 0.0 0.00 0.00 0.00 76 997.8
20260505052003 66 0 0.0 0.0 0.00 0.00 0.00 76 997.8
20260505051504 66 0 0.0 0.0 0.00 0.00 0.00 76 998.1
20260505041003 67 0 0.0 0.0 0.00 0.00 0.00 75 998.7
20260505040503 67 0 0.0 0.0 0.00 0.00 0.00 75 998.6
20260505040004 67 0 0.0 0.0 0.00 0.00 0.00 74 998.7
20260505035503 67 0 0.0 0.0 0.00 0.00 0.00 74 998.6
20260505035004 67 0 0.0 0.0 0.00 0.00 0.00 73 998.6
20260505034503 68 0 0.0 0.0 0.00 0.00 0.00 73 998.7
20260505033503 68 0 0.0 0.0 0.00 0.00 0.00 73 998.7
20260505033003 68 0 0.0 0.0 0.00 0.00 0.00 73 998.7
20260505032503 68 0 0.0 0.0 0.00 0.00 0.00 72 998.6
20260505031503 68 0 0.0 0.0 0.00 0.00 0.00 72 998.8
20260505031004 69 0 0.0 0.0 0.00 0.00 0.00 72 998.7
20260505030003 69 0 0.0 0.0 0.00 0.00 0.00 71 998.8
20260505025503 69 0 0.0 0.0 0.00 0.00 0.00 71 998.8
20260505024503 69 0 0.0 0.0 0.00 0.00 0.00 71 998.6
20260505024003 70 0 0.0 0.0 0.00 0.00 0.00 70 998.4
20260505023503 70 0 0.0 0.0 0.00 0.00 0.00 69 998.3
20260505023004 70 0 0.0 0.0 0.00 0.00 0.00 69 998.3
20260505022503 70 0 0.0 0.0 0.00 0.00 0.00 69 998.2
20260505022003 71 0 0.0 0.0 0.00 0.00 0.00 69 998.2
20260505021503 71 0 0.0 0.0 0.00 0.00 0.00 68 998.0
20260505021003 71 0 0.0 0.0 0.00 0.00 0.00 68 997.9
20260505020504 71 0 0.0 0.0 0.00 0.00 0.00 68 998.1
20260505020003 71 0 0.0 0.0 0.00 0.00 0.00 68 997.9
20260505015503 72 0 0.0 0.0 0.00 0.00 0.00 67 997.9
20260505015003 72 0 0.0 0.0 0.00 0.00 0.00 66 997.9
20260505014503 72 0 0.0 0.0 0.00 0.00 0.00 66 997.8
20260505014004 73 0 0.0 0.0 0.00 0.00 0.00 65 997.9
20260505013503 73 0 0.0 0.0 0.00 0.00 0.00 65 997.7
20260505012503 74 0 0.0 0.0 0.00 0.00 0.00 64 997.4
20260505011504 74 0 0.0 0.0 0.00 0.00 0.00 64 997.5
20260505011003 75 0 0.0 0.0 0.00 0.00 0.00 63 997.5
20260505005503 75 0 0.0 0.0 0.00 0.00 0.00 61 997.5
20260505005003 76 0 0.0 0.0 0.00 0.00 0.00 60 997.3
20260505004503 76 24 0.0 2.0 0.00 0.00 0.00 60 997.4
20260505004003 76 22 0.0 2.0 0.00 0.00 0.00 60 997.4
20260505003503 76 52 0.0 2.0 0.00 0.00 0.00 60 997.3
20260505003004 76 85 0.0 2.0 0.00 0.00 0.00 59 997.4
20260505002503 76 327 0.0 3.0 0.00 0.00 0.00 59 997.4
20260505001503 77 9 0.0 2.0 0.00 0.00 0.00 59 997.3
20260505001003 77 343 0.0 3.0 0.00 0.00 0.00 59 997.3
20260505000504 77 332 0.0 3.0 0.00 0.00 0.00 58 997.4
20260504235503 77 287 0.0 2.0 0.00 0.00 0.00 58 997.4
20260504235003 77 286 0.0 1.0 0.00 0.00 0.00 57 997.5
20260504234504 77 304 0.0 3.0 0.00 0.00 0.00 57 997.5
20260504233503 78 320 0.0 3.0 0.00 0.00 0.00 57 997.6
20260504233003 78 329 0.0 4.0 0.00 0.00 0.00 56 997.6
20260504232503 78 277 1.0 4.0 0.00 0.00 0.00 56 997.6
20260504232003 78 66 1.0 3.0 0.00 0.00 0.00 55 997.6
20260504231504 78 77 1.0 3.0 0.00 0.00 0.00 56 997.7
20260504231003 78 89 1.0 3.0 0.00 0.00 0.00 55 997.8
20260504230503 79 243 1.0 4.0 0.00 0.00 0.00 55 997.8
20260504230004 79 240 1.0 4.0 0.00 0.00 0.00 54 997.9
20260504225503 79 251 0.0 3.0 0.00 0.00 0.00 55 998.0
20260504225004 79 294 0.0 4.0 0.00 0.00 0.00 55 997.9
20260504224504 79 279 1.0 4.0 0.00 0.00 0.00 55 998.0
20260504223503 79 280 1.0 5.0 0.00 0.00 0.00 55 998.1
20260504223004 79 260 1.0 5.0 0.00 0.00 0.00 54 998.2
20260504222502 79 254 2.0 8.0 0.00 0.00 0.00 54 998.2
20260504222003 79 270 2.0 8.0 0.00 0.00 0.00 53 998.2
20260504221503 80 276 2.0 8.0 0.00 0.00 0.00 53 998.2
20260504221003 80 275 3.0 8.0 0.00 0.00 0.00 52 998.3
20260504220504 80 275 3.0 9.0 0.00 0.00 0.00 52 998.3
20260504220004 81 270 2.0 9.0 0.00 0.00 0.00 52 998.4
20260504215503 81 136 1.0 6.0 0.00 0.00 0.00 52 998.4
20260504215003 81 265 1.0 6.0 0.00 0.00 0.00 51 998.4
20260504214503 81 251 2.0 7.0 0.00 0.00 0.00 51 998.5
20260504214003 82 270 2.0 7.0 0.00 0.00 0.00 50 998.5
20260504213502 82 275 2.0 5.0 0.00 0.00 0.00 51 998.6
20260504213004 83 265 2.0 5.0 0.00 0.00 0.00 49 998.7
20260504212503 83 249 2.0 5.0 0.00 0.00 0.00 49 998.7
20260504212003 83 240 1.0 4.0 0.00 0.00 0.00 49 998.6
20260504211503 83 258 2.0 6.0 0.00 0.00 0.00 50 998.7
20260504211003 82 268 3.0 8.0 0.00 0.00 0.00 50 998.7
20260504210503 83 265 2.0 8.0 0.00 0.00 0.00 50 998.8
20260504210003 83 257 1.0 8.0 0.00 0.00 0.00 50 998.9
20260504205504 82 256 2.0 8.0 0.00 0.00 0.00 50 999.0
20260504205003 82 263 2.0 8.0 0.00 0.00 0.00 49 999.0
20260504203503 82 267 3.0 11.0 0.00 0.00 0.00 48 999.3
20260504202503 82 277 2.0 9.0 0.00 0.00 0.00 50 999.5
20260504202003 82 269 3.0 11.0 0.00 0.00 0.00 48 999.5
20260504201503 82 262 4.0 11.0 0.00 0.00 0.00 47 999.7
20260504201002 82 268 3.0 9.0 0.00 0.00 0.00 48 999.7
20260504200503 82 272 2.0 7.0 0.00 0.00 0.00 48 999.8
20260504200004 82 268 3.0 11.0 0.00 0.00 0.00 49 999.8
20260504195503 82 267 3.0 11.0 0.00 0.00 0.00 48 999.9
20260504195004 83 261 2.0 6.0 0.00 0.00 0.00 48 999.9
20260504194503 83 269 2.0 5.0 0.00 0.00 0.00 49 1000.0
20260504194004 82 270 2.0 11.0 0.00 0.00 0.00 50 1000.1
20260504193004 82 260 3.0 9.0 0.00 0.00 0.00 49 1000.2
20260504192503 82 259 3.0 9.0 0.00 0.00 0.00 50 1000.4
20260504192003 82 261 3.0 8.0 0.00 0.00 0.00 50 1000.4
20260504191503 82 281 3.0 8.0 0.00 0.00 0.00 49 1000.4
20260504191004 82 290 3.0 7.0 0.00 0.00 0.00 48 1000.4
20260504190503 82 267 2.0 7.0 0.00 0.00 0.00 49 1000.5
20260504190003 82 266 2.0 13.0 0.00 0.00 0.00 49 1000.4
20260504185503 82 265 3.0 13.0 0.00 0.00 0.00 48 1000.5
20260504185005 81 263 3.0 9.0 0.00 0.00 0.00 50 1000.6
20260504184503 81 265 3.0 12.0 0.00 0.00 0.00 49 1000.6
20260504184004 81 261 3.0 12.0 0.00 0.00 0.00 48 1000.8
20260504183503 81 254 3.0 11.0 0.00 0.00 0.00 49 1000.7
20260504182503 81 262 3.0 8.0 0.00 0.00 0.00 51 1000.8
20260504182003 81 256 3.0 8.0 0.00 0.00 0.00 51 1000.9
20260504181503 80 253 3.0 9.0 0.00 0.00 0.00 50 1000.9
20260504180502 80 262 4.0 12.0 0.00 0.00 0.00 48 1000.8
20260504175502 80 267 4.0 11.0 0.00 0.00 0.00 50 1001.0
20260504175003 80 262 4.0 11.0 0.00 0.00 0.00 50 1001.1
20260504174503 80 264 3.0 7.0 0.00 0.00 0.00 52 1001.2
20260504174003 79 272 3.0 9.0 0.00 0.00 0.00 52 1001.3
20260504173503 79 269 3.0 10.0 0.00 0.00 0.00 52 1001.4
20260504173003 79 266 4.0 13.0 0.00 0.00 0.00 51 1001.4
20260504172503 79 261 4.0 13.0 0.00 0.00 0.00 52 1001.5
20260504171504 78 261 4.0 12.0 0.00 0.00 0.00 50 1001.6
20260504170502 78 271 4.0 14.0 0.00 0.00 0.00 51 1001.7
20260504151003 73 79 0.0 3.0 0.00 0.00 0.00 61 1002.9
20260504150504 73 72 0.0 3.0 0.00 0.00 0.00 61 1003.0
20260504141003 68 263 1.0 3.0 0.00 0.00 0.00 63 1003.2
20260504140503 68 284 1.0 3.0 0.00 0.00 0.00 64 1003.1